Location: Austin
(30.3000°N, 97.7500°W)
Time: 00:15:25
(UTC-05:00)

ISS - Pass Details

Date: 06 May 2026
Orbit: 414 x 424 km, 51.6° (Epoch: 13 May)

Event Time Altitude Azimuth Distance (km) Brightness Sun altitude
Rises 21:32:11 0° 214° (SSW) 2,331 0.1 -16.4°
Reaches altitude 10° 21:34:17 10° 209° (SSW) 1,473 -1.0 -16.8°
Maximum altitude 21:37:31 53° 132° (SE) 512 -3.8 -17.3°
Enters shadow 21:37:33 53° 129° (SE) 512 -3.8 -17.3°
